,,PA_Meas_PMT16A,,PR_Meas_QMR101_102,,RH_Meas_QMH101,,SR_Meas_QMS101,,TA_Meas_QMH101,,GenWind,,GenWind,
time,status,PA,status,PR,status,RH,status,SR,status,TA,status,DirAvg,status,SpdAvg,
2010-06-06, 00:00:04,VALID,917.864,VALID,0,VALID,92.1747,VALID,0,VALID,21.2226,VALID,54,VALID,1.00586,
2010-06-06, 00:01:04,VALID,917.889,VALID,0,VALID,92.6779,VALID,0,VALID,21.2632,VALID,54,VALID,0.665625,
2010-06-06, 00:02:04,VALID,917.883,VALID,0,VALID,92.6016,VALID,0,VALID,21.2421,VALID,54,VALID,0.476563,
2010-06-06, 00:03:04,VALID,917.904,VALID,0,VALID,92.9218,VALID,0,VALID,21.2421,VALID,54,VALID,0.207422,
2010-06-06, 00:04:04,VALID,917.908,VALID,0,VALID,92.7998,VALID,0,VALID,21.2421,VALID,54,VALID,0.0832031,
2010-06-06, 00:05:04,VALID,917.885,VALID,0,VALID,93.059,VALID,0,VALID,21.2421,VALID,54,VALID,0.172656,
2010-06-06, 00:06:04,VALID,917.874,VALID,0,VALID,92.8227,VALID,0.107441,VALID,21.2226,VALID,54,VALID,0.96875,
2010-06-06, 00:07:04,VALID,917.869,VALID,0,VALID,92.8608,VALID,0,VALID,21.2031,VALID,53,VALID,0.434375,
2010-06-06, 00:08:04,VALID,917.898,VALID,0.2,VALID,93.059,VALID,0,VALID,21.1836,VALID,54,VALID,0.170312,
2010-06-06, 00:09:04,VALID,917.888,VALID,0,VALID,93.707,VALID,0,VALID,21.1836,VALID,54,VALID,0.463672,
2010-06-06, 00:10:04,VALID,917.879,VALID,0,VALID,93.7756,VALID,0,VALID,21.164,VALID,54,VALID,0.319531,
2010-06-06, 00:11:04,VALID,917.894,VALID,0,VALID,93.5088,VALID,0,VALID,21.1055,VALID,54,VALID,0.09375,
2010-06-06, 00:12:04,VALID,917.874,VALID,0,VALID,93.7833,VALID,0,VALID,21.1055,VALID,54,VALID,0.145313,
2010-06-06, 00:13:04,VALID,917.817,VALID,0,VALID,93.7147,VALID,0.107441,VALID,21.0665,VALID,54,VALID,0.701953,
2010-06-06, 00:14:04,VALID,917.818,VALID,0.2,VALID,93.9129,VALID,0,VALID,21.047,VALID,54,VALID,0.479688,
2010-06-06, 00:15:04,VALID,917.798,VALID,0,VALID,94.4008,VALID,0,VALID,21.047,VALID,54,VALID,0.131641,
2010-06-06, 00:16:04,VALID,917.793,VALID,0,VALID,94.6905,VALID,0,VALID,21.0275,VALID,54,VALID,0,
2010-06-06, 00:17:04,VALID,917.783,VALID,0,VALID,94.6981,VALID,0,VALID,21.008,VALID,54,VALID,0.61875,
2010-06-06, 00:18:04,VALID,917.754,VALID,0,VALID,94.3855,VALID,0,VALID,20.9885,VALID,54,VALID,0.4625,
2010-06-06, 00:19:04,VALID,917.737,VALID,0,VALID,94.3474,VALID,0,VALID,21.008,VALID,54,VALID,0.334766,
2010-06-06, 00:20:04,VALID,917.732,VALID,0,VALID,94.3474,VALID,0,VALID,21.0291,VALID,54,VALID,0.775391,
2010-06-06, 00:21:04,VALID,917.741,VALID,0,VALID,94.6447,VALID,0,VALID,21.0275,VALID,54,VALID,0.0304688,
2010-06-06, 00:22:04,VALID,917.697,VALID,0,VALID,94.9115,VALID,0,VALID,21.0064,VALID,54,VALID,0,
2010-06-06, 00:23:04,VALID,917.681,VALID,0,VALID,94.7819,VALID,0,VALID,20.969,VALID,54,VALID,0.284375,
2010-06-06, 00:24:04,VALID,917.663,VALID,0,VALID,94.8277,VALID,0,VALID,20.969,VALID,54,VALID,0.498828,
2010-06-06, 00:25:04,VALID,917.633,VALID,0,VALID,94.9573,VALID,0,VALID,20.9495,VALID,54,VALID,0.569922,
2010-06-06, 00:26:04,VALID,917.573,VALID,0,VALID,94.8429,VALID,0,VALID,20.891,VALID,54,VALID,0.351563,
2010-06-06, 00:27:04,VALID,917.605,VALID,0,VALID,94.8048,VALID,0.107441,VALID,20.8519,VALID,54,VALID,0.916797,
2010-06-06, 00:28:04,VALID,917.58,VALID,0,VALID,95.0183,VALID,0,VALID,20.8714,VALID,38,VALID,1.15703,
2010-06-06, 00:29:04,VALID,917.584,VALID,0,VALID,94.7133,VALID,0,VALID,20.795,VALID,28,VALID,0.546875,
2010-06-06, 00:30:04,VALID,917.537,VALID,0,VALID,94.5913,VALID,0,VALID,20.7739,VALID,28,VALID,0.327344,
2010-06-06, 00:31:04,VALID,917.555,VALID,0,VALID,94.6447,VALID,0,VALID,20.7755,VALID,28,VALID,0.571875,
2010-06-06, 00:32:04,VALID,917.493,VALID,0,VALID,94.881,VALID,0,VALID,20.7739,VALID,28,VALID,0.936719,
2010-06-06, 00:33:04,VALID,917.528,VALID,0,VALID,94.6752,VALID,0,VALID,20.7544,VALID,28,VALID,1.00352,
2010-06-06, 00:34:04,VALID,917.494,VALID,0,VALID,94.7057,VALID,0,VALID,20.7755,VALID,28,VALID,0.980469,
2010-06-06, 00:35:04,VALID,917.487,VALID,0,VALID,94.6142,VALID,0,VALID,20.7544,VALID,28,VALID,0.89375,
2010-06-06, 00:36:04,VALID,917.505,VALID,0,VALID,94.7286,VALID,0,VALID,20.7349,VALID,28,VALID,0.576172,
2010-06-06, 00:37:04,VALID,917.518,VALID,0,VALID,94.8658,VALID,0,VALID,20.7349,VALID,28,VALID,0.765234,
2010-06-06, 00:38:04,VALID,917.477,VALID,0,VALID,94.9344,VALID,0,VALID,20.717,VALID,28,VALID,0.917969,
2010-06-06, 00:39:04,VALID,917.481,VALID,0,VALID,94.8658,VALID,0,VALID,20.6764,VALID,28,VALID,0.884766,
2010-06-06, 00:40:04,VALID,917.454,VALID,0,VALID,94.9115,VALID,0,VALID,20.6959,VALID,28,VALID,0.666406,
2010-06-06, 00:41:04,VALID,917.449,VALID,0,VALID,94.6523,VALID,0.107441,VALID,20.6569,VALID,12,VALID,1.6375,
2010-06-06, 00:42:04,VALID,917.464,VALID,0,VALID,94.4084,VALID,0,VALID,20.6569,VALID,3,VALID,1.01094,
2010-06-06, 00:43:04,VALID,917.432,VALID,0,VALID,94.2178,VALID,0,VALID,20.6764,VALID,2,VALID,1.55977,
2010-06-06, 00:44:04,VALID,917.43,VALID,0,VALID,93.9815,VALID,0,VALID,20.7154,VALID,23,VALID,1.74961,
2010-06-06, 00:45:04,VALID,917.377,VALID,0,VALID,93.951,VALID,0,VALID,20.7349,VALID,359,VALID,1.73047,
2010-06-06, 00:46:04,VALID,917.349,VALID,0,VALID,94.2483,VALID,0,VALID,20.7544,VALID,359,VALID,1.45859,
2010-06-06, 00:47:04,VALID,917.34,VALID,0,VALID,94.3321,VALID,0.107441,VALID,20.7544,VALID,360,VALID,0.945313,
2010-06-06, 00:48:04,VALID,917.311,VALID,0,VALID,94.2864,VALID,0,VALID,20.7544,VALID,360,VALID,0.298438,
2010-06-06, 00:49:04,VALID,917.302,VALID,0,VALID,94.0501,VALID,0,VALID,20.7544,VALID,360,VALID,0.0632813,
2010-06-06, 00:50:04,VALID,917.294,VALID,0,VALID,93.89,VALID,0,VALID,20.795,VALID,360,VALID,0.916406,
2010-06-06, 00:51:04,VALID,917.306,VALID,0,VALID,94.0425,VALID,0,VALID,20.8129,VALID,360,VALID,0.191797,
2010-06-06, 00:52:04,VALID,917.258,VALID,0,VALID,94.0272,VALID,0,VALID,20.7934,VALID,360,VALID,0.141797,
2010-06-06, 00:53:04,VALID,917.251,VALID,0,VALID,94.1263,VALID,0.107441,VALID,20.7934,VALID,360,VALID,0.233594,
2010-06-06, 00:54:04,VALID,917.215,VALID,0,VALID,94.3855,VALID,0,VALID,20.7739,VALID,360,VALID,0.923828,
2010-06-06, 00:55:04,VALID,917.227,VALID,0,VALID,94.5532,VALID,0,VALID,20.7755,VALID,360,VALID,1.47148,
2010-06-06, 00:56:04,VALID,917.217,VALID,0,VALID,94.6066,VALID,0,VALID,20.756,VALID,360,VALID,0.571875,
2010-06-06, 00:57:04,VALID,917.192,VALID,0,VALID,94.4846,VALID,0,VALID,20.7154,VALID,360,VALID,0.582031,
2010-06-06, 00:58:04,VALID,917.166,VALID,0,VALID,94.5761,VALID,0,VALID,20.6959,VALID,360,VALID,0.505078,
2010-06-06, 00:59:04,VALID,917.145,VALID,0,VALID,94.82,VALID,0,VALID,20.6764,VALID,360,VALID,0.434766,
2010-06-06, 01:00:04,VALID,917.151,VALID,0,VALID,95.003,VALID,0.107441,VALID,20.6764,VALID,360,VALID,0.613672,
2010-06-06, 01:01:04,VALID,917.151,VALID,0,VALID,95.0488,VALID,0,VALID,20.678,VALID,360,VALID,0.269141,
2010-06-06, 01:02:04,VALID,917.134,VALID,0,VALID,95.0716,VALID,0.107441,VALID,20.6374,VALID,360,VALID,0.716016,
2010-06-06, 01:03:04,VALID,917.138,VALID,0,VALID,95.0869,VALID,0.107441,VALID,20.6374,VALID,360,VALID,0.760938,
2010-06-06, 01:04:04,VALID,917.104,VALID,0,VALID,95.1783,VALID,0.107441,VALID,20.6179,VALID,360,VALID,1.50039,
2010-06-06, 01:05:04,VALID,917.141,VALID,0,VALID,95.2622,VALID,0,VALID,20.6179,VALID,360,VALID,1.09961,
2010-06-06, 01:06:04,VALID,917.147,VALID,0,VALID,95.2317,VALID,0,VALID,20.639,VALID,360,VALID,0.353906,
2010-06-06, 01:07:04,VALID,917.172,VALID,0,VALID,95.0488,VALID,0,VALID,20.6374,VALID,360,VALID,0.0195313,
2010-06-06, 01:08:04,VALID,917.164,VALID,0,VALID,95.0716,VALID,0.107441,VALID,20.6764,VALID,360,VALID,0.865234,
2010-06-06, 01:09:04,VALID,917.175,VALID,0,VALID,95.0259,VALID,0.107441,VALID,20.6959,VALID,360,VALID,0.551172,
2010-06-06, 01:10:04,VALID,917.154,VALID,0,VALID,95.0106,VALID,0.107441,VALID,20.6764,VALID,360,VALID,0.282813,
2010-06-06, 01:11:04,VALID,917.156,VALID,0,VALID,95.1783,VALID,0,VALID,20.6975,VALID,360,VALID,0.530859,
2010-06-06, 01:12:04,VALID,917.154,VALID,0,VALID,95.247,VALID,0,VALID,20.6569,VALID,360,VALID,0.714453,
2010-06-06, 01:13:04,VALID,917.146,VALID,0,VALID,95.1555,VALID,0.107441,VALID,20.6569,VALID,360,VALID,0.801562,
2010-06-06, 01:14:04,VALID,917.17,VALID,0,VALID,95.1479,VALID,0.107441,VALID,20.678,VALID,360,VALID,0.202734,
2010-06-06, 01:15:04,VALID,917.177,VALID,0,VALID,95.1707,VALID,0,VALID,20.6959,VALID,360,VALID,0.869141,
2010-06-06, 01:16:04,VALID,917.168,VALID,0,VALID,95.2317,VALID,0,VALID,20.7365,VALID,360,VALID,0.345703,
2010-06-06, 01:17:04,VALID,917.155,VALID,0,VALID,95.186,VALID,0,VALID,20.7365,VALID,360,VALID,0,
2010-06-06, 01:18:04,VALID,917.132,VALID,0,VALID,95.2393,VALID,0,VALID,20.7154,VALID,360,VALID,0,
2010-06-06, 01:19:04,VALID,917.128,VALID,0,VALID,95.3384,VALID,0,VALID,20.7349,VALID,360,VALID,0,
2010-06-06, 01:20:04,VALID,917.13,VALID,0,VALID,95.3766,VALID,0,VALID,20.7349,VALID,360,VALID,0,
2010-06-06, 01:21:04,VALID,917.076,VALID,0,VALID,95.4147,VALID,0,VALID,20.756,VALID,360,VALID,0.416406,
2010-06-06, 01:22:04,VALID,917.075,VALID,0,VALID,95.3842,VALID,0,VALID,20.7154,VALID,360,VALID,0.555859,
2010-06-06, 01:23:04,VALID,917.054,VALID,0,VALID,95.4452,VALID,0,VALID,20.7365,VALID,360,VALID,0,
2010-06-06, 01:24:04,VALID,917.042,VALID,0,VALID,95.2698,VALID,0,VALID,20.6975,VALID,360,VALID,0.267578,
2010-06-06, 01:25:04,VALID,917.031,VALID,0,VALID,95.1326,VALID,0,VALID,20.6975,VALID,360,VALID,0.613281,
2010-06-06, 01:26:04,VALID,917.041,VALID,0,VALID,95.1479,VALID,0,VALID,20.7349,VALID,360,VALID,0,
2010-06-06, 01:27:04,VALID,917.047,VALID,0,VALID,95.0259,VALID,0,VALID,20.756,VALID,360,VALID,0.719141,
2010-06-06, 01:28:04,VALID,917.033,VALID,0,VALID,94.9801,VALID,0.107441,VALID,20.7349,VALID,360,VALID,0.362891,
2010-06-06, 01:29:04,VALID,916.999,VALID,0,VALID,94.8124,VALID,0,VALID,20.6975,VALID,360,VALID,0.636719,
2010-06-06, 01:30:04,VALID,917.005,VALID,0,VALID,94.8429,VALID,0,VALID,20.6764,VALID,360,VALID,0.586719,
2010-06-06, 01:31:04,VALID,916.989,VALID,0,VALID,94.8582,VALID,0,VALID,20.6569,VALID,360,VALID,0.769922,
2010-06-06, 01:32:04,VALID,916.98,VALID,0,VALID,95.0411,VALID,0,VALID,20.6374,VALID,360,VALID,0.908594,
2010-06-06, 01:33:04,VALID,916.955,VALID,0,VALID,95.1174,VALID,0,VALID,20.6374,VALID,360,VALID,0.484375,
2010-06-06, 01:34:04,VALID,916.962,VALID,0,VALID,95.0869,VALID,0,VALID,20.6179,VALID,360,VALID,1.25742,
2010-06-06, 01:35:04,VALID,916.934,VALID,0,VALID,95.186,VALID,0,VALID,20.6374,VALID,360,VALID,0.741797,
2010-06-06, 01:36:04,VALID,916.935,VALID,0,VALID,95.1021,VALID,0,VALID,20.6585,VALID,360,VALID,0.348047,
2010-06-06, 01:37:04,VALID,916.902,VALID,0,VALID,95.0488,VALID,0,VALID,20.6179,VALID,360,VALID,0.820313,
2010-06-06, 01:38:04,VALID,916.888,VALID,0,VALID,94.8429,VALID,0,VALID,20.6194,VALID,360,VALID,0.684766,
2010-06-06, 01:39:04,VALID,916.874,VALID,0,VALID,94.9496,VALID,0,VALID,20.5984,VALID,360,VALID,0.389062,
2010-06-06, 01:40:04,VALID,916.827,VALID,0,VALID,94.8277,VALID,0,VALID,20.5594,VALID,360,VALID,0.614062,
2010-06-06, 01:41:04,VALID,916.858,VALID,0,VALID,95.0183,VALID,0,VALID,20.5804,VALID,1,VALID,0.806641,
2010-06-06, 01:42:04,VALID,916.812,VALID,0,VALID,94.9496,VALID,0,VALID,20.5399,VALID,1,VALID,0.903906,
2010-06-06, 01:43:04,VALID,916.827,VALID,0,VALID,94.9115,VALID,0,VALID,20.5414,VALID,1,VALID,0.807031,
2010-06-06, 01:44:04,VALID,916.797,VALID,0,VALID,94.82,VALID,0,VALID,20.5009,VALID,1,VALID,0.357031,
2010-06-06, 01:45:04,VALID,916.801,VALID,0,VALID,94.82,VALID,0,VALID,20.5009,VALID,1,VALID,0.245312,
2010-06-06, 01:46:04,VALID,916.754,VALID,0,VALID,94.7209,VALID,0,VALID,20.4423,VALID,1,VALID,0.0511719,
2010-06-06, 01:47:05,VALID,916.73,VALID,0,VALID,94.6752,VALID,0,VALID,20.4423,VALID,1,VALID,0.358984,
2010-06-06, 01:48:05,VALID,916.718,VALID,0,VALID,94.5532,VALID,0,VALID,20.4033,VALID,1,VALID,0.507031,
2010-06-06, 01:49:05,VALID,916.677,VALID,0,VALID,94.538,VALID,0,VALID,20.4033,VALID,1,VALID,0.370313,
2010-06-06, 01:50:05,VALID,916.646,VALID,0,VALID,94.599,VALID,0,VALID,20.3838,VALID,1,VALID,0.138281,
2010-06-06, 01:51:05,VALID,916.622,VALID,0,VALID,94.7133,VALID,0,VALID,20.3643,VALID,1,VALID,0,
2010-06-06, 01:52:05,VALID,916.653,VALID,0,VALID,94.7057,VALID,0,VALID,20.3253,VALID,1,VALID,0.375,
2010-06-06, 01:53:05,VALID,916.63,VALID,0,VALID,94.7667,VALID,0,VALID,20.3448,VALID,1,VALID,0.389453,
2010-06-06, 01:54:05,VALID,916.642,VALID,0,VALID,94.8429,VALID,0,VALID,20.3058,VALID,1,VALID,0.591016,
2010-06-06, 01:55:05,VALID,916.638,VALID,0,VALID,95.0183,VALID,0,VALID,20.3058,VALID,1,VALID,0.397656,
2010-06-06, 01:56:05,VALID,916.632,VALID,0,VALID,95.1555,VALID,0,VALID,20.3058,VALID,1,VALID,0.0414063,
2010-06-06, 01:57:05,VALID,916.628,VALID,0,VALID,95.1174,VALID,0,VALID,20.2879,VALID,1,VALID,0.278516,
2010-06-06, 01:58:05,VALID,916.632,VALID,0,VALID,95.064,VALID,0,VALID,20.2668,VALID,1,VALID,0.00585938,
2010-06-06, 01:59:05,VALID,916.617,VALID,0,VALID,95.0411,VALID,0,VALID,20.2278,VALID,1,VALID,0.632813,
2010-06-06, 02:00:05,VALID,916.634,VALID,0,VALID,95.1555,VALID,0,VALID,20.2473,VALID,1,VALID,0.799609,
2010-06-06, 02:01:05,VALID,916.625,VALID,0,VALID,95.1021,VALID,0,VALID,20.2278,VALID,1,VALID,0.835938,
2010-06-06, 02:02:05,VALID,916.646,VALID,0,VALID,95.1783,VALID,0,VALID,20.2293,VALID,1,VALID,0.837109,
2010-06-06, 02:03:05,VALID,916.622,VALID,0,VALID,95.2317,VALID,0,VALID,20.1888,VALID,1,VALID,0.540234,
2010-06-06, 02:04:05,VALID,916.64,VALID,0,VALID,95.1707,VALID,0,VALID,20.1498,VALID,1,VALID,0.755469,
2010-06-06, 02:05:05,VALID,916.646,VALID,0,VALID,95.2165,VALID,0,VALID,20.1498,VALID,1,VALID,0.605078,
2010-06-06, 02:06:05,VALID,916.669,VALID,0,VALID,95.3842,VALID,0,VALID,20.1303,VALID,1,VALID,1.03516,
2010-06-06, 02:07:05,VALID,916.605,VALID,0,VALID,95.6586,VALID,0,VALID,20.1708,VALID,1,VALID,1.07578,
2010-06-06, 02:08:05,VALID,916.584,VALID,0,VALID,95.895,VALID,0,VALID,20.1693,VALID,1,VALID,0.864844,
2010-06-06, 02:09:05,VALID,916.593,VALID,0,VALID,96.0245,VALID,0,VALID,20.1888,VALID,1,VALID,1.49883,
2010-06-06, 02:10:05,VALID,916.6,VALID,0,VALID,96.0855,VALID,0,VALID,20.1888,VALID,2,VALID,1.32852,
2010-06-06, 02:11:05,VALID,916.601,VALID,0,VALID,96.116,VALID,0,VALID,20.2098,VALID,3,VALID,1.19375,
2010-06-06, 02:12:05,VALID,916.554,VALID,0,VALID,96.0245,VALID,0,VALID,20.2098,VALID,3,VALID,0.694922,
2010-06-06, 02:13:05,VALID,916.58,VALID,0,VALID,96.0474,VALID,0,VALID,20.2293,VALID,29,VALID,1.90547,
2010-06-06, 02:14:05,VALID,916.562,VALID,0,VALID,96.0169,VALID,0,VALID,20.2473,VALID,22,VALID,1.26328,
2010-06-06, 02:15:05,VALID,916.519,VALID,0,VALID,95.9712,VALID,0,VALID,20.2668,VALID,22,VALID,0.797656,
2010-06-06, 02:16:05,VALID,916.539,VALID,0,VALID,95.9712,VALID,0,VALID,20.3058,VALID,22,VALID,1.12383,
2010-06-06, 02:17:05,VALID,916.515,VALID,0,VALID,95.8111,VALID,0,VALID,20.2863,VALID,6,VALID,1.84219,
2010-06-06, 02:18:05,VALID,916.522,VALID,0,VALID,95.59,VALID,0,VALID,20.3058,VALID,6,VALID,0.950391,
2010-06-06, 02:19:05,VALID,916.489,VALID,0,VALID,95.2775,VALID,0,VALID,20.3448,VALID,6,VALID,1.11797,
2010-06-06, 02:20:05,VALID,916.504,VALID,0,VALID,95.0564,VALID,0,VALID,20.4244,VALID,6,VALID,0.673828,
2010-06-06, 02:21:05,VALID,916.495,VALID,0,VALID,94.6752,VALID,0,VALID,20.4634,VALID,6,VALID,0.160547,
2010-06-06, 02:22:05,VALID,916.473,VALID,0,VALID,94.5151,VALID,0.107441,VALID,20.4618,VALID,6,VALID,0.846875,
2010-06-06, 02:23:05,VALID,916.439,VALID,0,VALID,94.5075,VALID,0,VALID,20.4618,VALID,6,VALID,1.46992,
2010-06-06, 02:24:05,VALID,916.46,VALID,0,VALID,94.4922,VALID,0,VALID,20.4423,VALID,12,VALID,1.12773,
2010-06-06, 02:25:05,VALID,916.438,VALID,0,VALID,94.5685,VALID,0,VALID,20.4618,VALID,355,VALID,0.0121094,
2010-06-06, 02:26:05,VALID,916.419,VALID,0,VALID,94.4617,VALID,0,VALID,20.4829,VALID,355,VALID,0.0667969,
2010-06-06, 02:27:05,VALID,916.42,VALID,0,VALID,94.4922,VALID,0,VALID,20.4829,VALID,355,VALID,0.230078,
2010-06-06, 02:28:05,VALID,916.404,VALID,0,VALID,94.5685,VALID,0,VALID,20.4829,VALID,355,VALID,0.851172,
2010-06-06, 02:29:05,VALID,916.395,VALID,0,VALID,94.4313,VALID,0,VALID,20.4634,VALID,356,VALID,0.573438,
2010-06-06, 02:30:05,VALID,916.395,VALID,0,VALID,94.3398,VALID,0,VALID,20.4423,VALID,356,VALID,0.813281,
2010-06-06, 02:31:05,VALID,916.422,VALID,0,VALID,94.3779,VALID,0,VALID,20.4634,VALID,356,VALID,0.858984,
2010-06-06, 02:32:05,VALID,916.396,VALID,0,VALID,94.6371,VALID,0,VALID,20.5024,VALID,356,VALID,0.827734,
2010-06-06, 02:33:05,VALID,916.403,VALID,0,VALID,94.8887,VALID,0,VALID,20.5024,VALID,356,VALID,0.0984375,
2010-06-06, 02:34:05,VALID,916.426,VALID,0,VALID,94.6371,VALID,0,VALID,20.4634,VALID,356,VALID,0.140625,
2010-06-06, 02:35:05,VALID,916.442,VALID,0,VALID,94.6371,VALID,0,VALID,20.4813,VALID,356,VALID,0.31875,
2010-06-06, 02:36:05,VALID,916.429,VALID,0,VALID,94.4236,VALID,0,VALID,20.4813,VALID,356,VALID,0.405078,
2010-06-06, 02:37:05,VALID,916.426,VALID,0,VALID,94.4084,VALID,0,VALID,20.5009,VALID,356,VALID,0.283984,
2010-06-06, 02:38:05,VALID,916.433,VALID,0,VALID,94.3931,VALID,0,VALID,20.5219,VALID,356,VALID,0.509375,
2010-06-06, 02:39:05,VALID,916.419,VALID,0,VALID,94.4694,VALID,0.107441,VALID,20.5414,VALID,356,VALID,0.536719,
2010-06-06, 02:40:05,VALID,916.444,VALID,0,VALID,94.5761,VALID,0,VALID,20.5204,VALID,356,VALID,0,
2010-06-06, 02:41:05,VALID,916.414,VALID,0,VALID,94.5227,VALID,0,VALID,20.5009,VALID,356,VALID,0.443359,
2010-06-06, 02:42:05,VALID,916.428,VALID,0,VALID,94.4313,VALID,0.107441,VALID,20.5204,VALID,356,VALID,0.317969,
2010-06-06, 02:43:05,VALID,916.407,VALID,0,VALID,94.4389,VALID,0,VALID,20.5204,VALID,356,VALID,0.354297,
2010-06-06, 02:44:05,VALID,916.411,VALID,0,VALID,94.5075,VALID,0.107441,VALID,20.5609,VALID,356,VALID,0,
2010-06-06, 02:45:05,VALID,916.397,VALID,0,VALID,94.5609,VALID,0,VALID,20.5609,VALID,356,VALID,0.380859,
2010-06-06, 02:46:05,VALID,916.416,VALID,0,VALID,94.6676,VALID,0,VALID,20.5804,VALID,356,VALID,0.538672,
2010-06-06, 02:47:05,VALID,916.441,VALID,0,VALID,94.5151,VALID,0,VALID,20.5609,VALID,356,VALID,0.429688,
2010-06-06, 02:48:05,VALID,916.453,VALID,0,VALID,94.6447,VALID,0,VALID,20.5399,VALID,356,VALID,0,
2010-06-06, 02:49:05,VALID,916.483,VALID,0,VALID,94.7438,VALID,0,VALID,20.5804,VALID,356,VALID,0,
2010-06-06, 02:50:05,VALID,916.441,VALID,0,VALID,94.7438,VALID,0,VALID,20.5594,VALID,356,VALID,0.263281,
2010-06-06, 02:51:05,VALID,916.458,VALID,0,VALID,94.6142,VALID,0,VALID,20.5204,VALID,356,VALID,0.337891,
2010-06-06, 02:52:05,VALID,916.468,VALID,0,VALID,94.4465,VALID,0.107441,VALID,20.5009,VALID,356,VALID,0.398828,
2010-06-06, 02:53:05,VALID,916.479,VALID,0,VALID,94.5532,VALID,0,VALID,20.5219,VALID,356,VALID,0.542578,
2010-06-06, 02:54:05,VALID,916.461,VALID,0,VALID,94.477,VALID,0.107441,VALID,20.5219,VALID,356,VALID,0.307813,
2010-06-06, 02:55:05,VALID,916.446,VALID,0,VALID,94.538,VALID,0,VALID,20.5009,VALID,356,VALID,0.221875,
2010-06-06, 02:56:05,VALID,916.437,VALID,0,VALID,94.6142,VALID,0,VALID,20.5609,VALID,356,VALID,0.521875,
2010-06-06, 02:57:05,VALID,916.437,VALID,0,VALID,94.7362,VALID,0,VALID,20.5204,VALID,356,VALID,0.548047,
2010-06-06, 02:58:05,VALID,916.445,VALID,0,VALID,94.8505,VALID,0,VALID,20.5204,VALID,356,VALID,0.553906,
2010-06-06, 02:59:05,VALID,916.428,VALID,0,VALID,94.9725,VALID,0,VALID,20.5414,VALID,356,VALID,1.05938,
2010-06-06, 03:00:05,VALID,916.382,VALID,0,VALID,94.9344,VALID,0,VALID,20.5009,VALID,356,VALID,0.785937,
2010-06-06, 03:01:05,VALID,916.395,VALID,0,VALID,94.8963,VALID,0,VALID,20.5204,VALID,356,VALID,1.04219,
2010-06-06, 03:02:05,VALID,916.38,VALID,0,VALID,94.7209,VALID,0,VALID,20.5219,VALID,356,VALID,0.916797,
2010-06-06, 03:03:05,VALID,916.35,VALID,0,VALID,94.6142,VALID,0,VALID,20.5024,VALID,356,VALID,1.02539,
2010-06-06, 03:04:05,VALID,916.364,VALID,0,VALID,94.3779,VALID,0.107441,VALID,20.4813,VALID,356,VALID,1.04141,
2010-06-06, 03:05:05,VALID,916.359,VALID,0,VALID,94.2864,VALID,0,VALID,20.5009,VALID,356,VALID,0.632422,
2010-06-06, 03:06:05,VALID,916.345,VALID,0,VALID,94.4617,VALID,0,VALID,20.5399,VALID,356,VALID,0.907422,
2010-06-06, 03:07:05,VALID,916.353,VALID,0,VALID,94.3703,VALID,0.107441,VALID,20.5399,VALID,356,VALID,0.952344,
2010-06-06, 03:08:05,VALID,916.343,VALID,0,VALID,94.1416,VALID,0,VALID,20.5399,VALID,356,VALID,0.662891,
2010-06-06, 03:09:05,VALID,916.379,VALID,0,VALID,94.1187,VALID,0,VALID,20.5399,VALID,356,VALID,0.263672,
2010-06-06, 03:10:05,VALID,916.354,VALID,0,VALID,94.2712,VALID,0,VALID,20.5399,VALID,356,VALID,0.0640625,
2010-06-06, 03:11:05,VALID,916.34,VALID,0,VALID,94.1949,VALID,0,VALID,20.5204,VALID,356,VALID,1.12461,
2010-06-06, 03:12:05,VALID,916.349,VALID,0,VALID,94.2559,VALID,0,VALID,20.5414,VALID,356,VALID,0.680469,
2010-06-06, 03:13:05,VALID,916.366,VALID,0,VALID,94.1263,VALID,0,VALID,20.5009,VALID,13,VALID,1.02305,
2010-06-06, 03:14:05,VALID,916.39,VALID,0,VALID,94.2483,VALID,0,VALID,20.5204,VALID,13,VALID,0.949219,
2010-06-06, 03:15:05,VALID,916.405,VALID,0,VALID,94.1034,VALID,0,VALID,20.5219,VALID,13,VALID,1.15391,
2010-06-06, 03:16:05,VALID,916.371,VALID,0,VALID,94.1644,VALID,0,VALID,20.5204,VALID,13,VALID,0.932422,
2010-06-06, 03:17:05,VALID,916.401,VALID,0,VALID,94.1721,VALID,0,VALID,20.5204,VALID,13,VALID,0.640625,
2010-06-06, 03:18:05,VALID,916.432,VALID,0,VALID,94.0806,VALID,0,VALID,20.5399,VALID,13,VALID,0.992188,
2010-06-06, 03:19:05,VALID,916.422,VALID,0,VALID,93.89,VALID,0,VALID,20.5594,VALID,25,VALID,1.34922,
2010-06-06, 03:20:05,VALID,916.442,VALID,0,VALID,93.9662,VALID,0,VALID,20.5594,VALID,28,VALID,0.964453,
2010-06-06, 03:21:05,VALID,916.457,VALID,0,VALID,93.8671,VALID,0,VALID,20.5594,VALID,28,VALID,0.408594,
2010-06-06, 03:22:05,VALID,916.435,VALID,0,VALID,93.9052,VALID,0,VALID,20.5399,VALID,28,VALID,0.857813,
2010-06-06, 03:23:05,VALID,916.451,VALID,0,VALID,93.9738,VALID,0,VALID,20.5219,VALID,28,VALID,0.954687,
2010-06-06, 03:24:05,VALID,916.414,VALID,0,VALID,94.012,VALID,0,VALID,20.4618,VALID,28,VALID,1.55547,
2010-06-06, 03:25:05,VALID,916.389,VALID,0,VALID,94.0425,VALID,0,VALID,20.4813,VALID,28,VALID,1.45156,
2010-06-06, 03:26:05,VALID,916.415,VALID,0,VALID,94.0196,VALID,0,VALID,20.4634,VALID,28,VALID,1.00625,
2010-06-06, 03:27:05,VALID,916.396,VALID,0,VALID,94.073,VALID,0,VALID,20.4634,VALID,28,VALID,0.901953,
2010-06-06, 03:28:05,VALID,916.398,VALID,0,VALID,94.1721,VALID,0,VALID,20.4634,VALID,28,VALID,0.84375,
2010-06-06, 03:29:05,VALID,916.36,VALID,0,VALID,94.1568,VALID,0.107441,VALID,20.4439,VALID,28,VALID,0.986328,
2010-06-06, 03:30:05,VALID,916.355,VALID,0,VALID,94.0348,VALID,0,VALID,20.4423,VALID,357,VALID,1.46133,
2010-06-06, 03:31:05,VALID,916.346,VALID,0,VALID,93.951,VALID,0,VALID,20.4618,VALID,358,VALID,0.864453,
2010-06-06, 03:32:05,VALID,916.362,VALID,0,VALID,93.9052,VALID,0,VALID,20.4618,VALID,358,VALID,1.21445,
2010-06-06, 03:33:05,VALID,916.345,VALID,0,VALID,93.89,VALID,0,VALID,20.4829,VALID,358,VALID,0.588281,
2010-06-06, 03:34:05,VALID,916.351,VALID,0,VALID,93.8671,VALID,0,VALID,20.4618,VALID,358,VALID,0.500391,
2010-06-06, 03:35:05,VALID,916.32,VALID,0,VALID,93.8595,VALID,0,VALID,20.4618,VALID,358,VALID,0.967188,
2010-06-06, 03:36:05,VALID,916.303,VALID,0,VALID,93.9129,VALID,0,VALID,20.4634,VALID,358,VALID,1.12031,
2010-06-06, 03:37:05,VALID,916.338,VALID,0,VALID,93.8519,VALID,0,VALID,20.4634,VALID,11,VALID,1.52148,
2010-06-06, 03:38:05,VALID,916.336,VALID,0,VALID,93.951,VALID,0,VALID,20.4634,VALID,360,VALID,1.14414,
2010-06-06, 03:39:05,VALID,916.329,VALID,0,VALID,93.9434,VALID,0,VALID,20.4423,VALID,290,VALID,0.846875,
2010-06-06, 03:40:05,VALID,916.318,VALID,0,VALID,93.9891,VALID,0,VALID,20.4439,VALID,16,VALID,1.67031,
2010-06-06, 03:41:05,VALID,916.317,VALID,0,VALID,94.0272,VALID,0,VALID,20.4228,VALID,15,VALID,1.1,
2010-06-06, 03:42:05,VALID,916.293,VALID,0,VALID,94.0806,VALID,0,VALID,20.4244,VALID,351,VALID,1.19062,
2010-06-06, 03:43:05,VALID,916.279,VALID,0,VALID,94.1492,VALID,0,VALID,20.4244,VALID,351,VALID,0.887109,
2010-06-06, 03:44:05,VALID,916.259,VALID,0,VALID,94.2635,VALID,0,VALID,20.4049,VALID,351,VALID,1.02617,
2010-06-06, 03:45:05,VALID,916.27,VALID,0,VALID,94.3245,VALID,0,VALID,20.3448,VALID,351,VALID,1.47656,